Location: Azul
(36.7830°S, 59.8500°W)
Time: 20:31:06
(UTC-03:00)

RS-44 - Pass Details

Date: 16 September 2024
Orbit: 1174 x 1511 km, 82.5° (Epoch: 11 October)

Event Time Altitude Azimuth Distance (km) Brightness Sun altitude
Rises 05:00:35 0° 200° (SSW) 4,408 ? -23.9°
Reaches altitude 10° 05:03:47 10° 211° (SSW) 3,479 ? -23.3°
Enters shadow 05:09:01 27° 248° (WSW) 2,492 ? -22.3°
